This demonstration page uses our WeatherBlox Daily Observations layout. Learn more.

Left ArrowRight Arrow

Hourly Observations for December 29, 2015

Temp ( °F °C ) Dew Point ( °F °C ) Humidity (%) Winds ( mph kmh ) Pressure ( in mb ) Visibility ( mi km ) Precip ( " mm )
12:54 am 00:54 undefined 53 11.7 48 8.9 83 83 WSW 6 9 29.70 1006 N/A N/A
1:44 am 01:44 Cloudy 53 11.7 46 7.8 77 77 SW 13 20 29.71 1006 10 16 N/A
1:53 am 01:53 Cloudy 52 11.1 46 7.8 80 80 SW 12 19 29.72 1007 10 16 N/A
2:17 am 02:17 Cloudy 52 11.1 45 7.2 77 77 SW 13 20 29.74 1007 10 16 N/A
2:53 am 02:53 Cloudy 51 10.6 44 6.7 77 77 WSW 10 17 29.76 1008 10 16 N/A
3:53 am 03:53 Cloudy 49 9.4 40 4.4 71 71 WSW 17 28 29.78 1009 10 16 N/A
4:53 am 04:53 Cloudy 48 8.9 39 3.9 71 71 WSW 15 24 29.81 1010 10 16 N/A
6:53 am 06:53 Cloudy 47 8.3 39 3.9 74 74 WSW 10 17 29.87 1011 10 16 N/A
7:53 am 07:53 Cloudy 47 8.3 38 3.3 71 71 SW 13 20 29.89 1012 10 16 N/A
8:53 am 08:53 Cloudy 47 8.3 38 3.3 71 71 WSW 10 17 29.93 1014 10 16 N/A
11:53 am 11:53 Cloudy 43 6.1 35 1.7 74 74 W 13 20 30.04 1017 10 16 N/A
12:53 pm 12:53 Cloudy 43 6.1 34 1.1 71 71 WSW 14 22 30.05 1018 10 16 N/A
1:53 pm 13:53 Cloudy 42 5.6 33 0.6 71 71 W 14 22 30.06 1018 10 16 N/A
2:53 pm 14:53 Cloudy 42 5.6 33 0.6 71 71 W 13 20 30.08 1019 10 16 N/A
3:53 pm 15:53 Cloudy 42 5.6 33 0.6 71 71 W 9 15 30.11 1020 10 16 N/A
4:53 pm 16:53 Cloudy 42 5.6 33 0.6 71 71 WSW 7 11 30.14 1021 10 16 N/A
5:53 pm 17:53 Cloudy 41 5 33 0.6 73 73 WSW 8 13 30.17 1022 10 16 N/A
6:53 pm 18:53 Cloudy 41 5 32 undefined 70 70 W 8 13 30.19 1022 10 16 N/A
7:53 pm 19:53 Cloudy 40 4.4 32 undefined 73 73 W 5 7 30.19 1023 10 16 N/A
8:53 pm 20:53 Cloudy 40 4.4 32 undefined 73 73 VRB 3 6 30.20 1023 10 16 N/A
9:53 pm 21:53 Cloudy 40 4.4 33 0.6 77 77 WSW 3 6 30.20 1023 10 16 N/A
10:53 pm 22:53 Cloudy 40 4.4 32 undefined 73 73 N N/A 30.21 1023 10 16 N/A
11:53 pm 23:53 Cloudy 39 3.9 32 undefined 76 76 N N/A 30.20 1023 10 16 N/A

Powered by AerisWeather